Wetbulb
32.05 33.04 33.30 32.33 33.58 34.08 31.25 31.58 27.59 29.26 30.78 34.51 37.71 40.32 40.21 41.46 42.26 41.80 44.14 45.22 42.79 42.84 42.42 42.44 42.24 41.48 41.85 41.78 41.94 42.04 41.68 40.85 40.33 39.79 38.92 37.67 36.99 36.71 36.98 36.87 37.08 36.73 36.54 37.15
27.57 31.13 31.12 29.16 31.77 32.52 32.78 32.65 32.16 33.03 32.00 38.38 40.15 42.03 40.36 40.34 41.15 41.94 43.08 44.75 45.40 44.86 44.26 42.38 42.77 42.40 42.26 41.78 41.78 42.14 41.54 40.61 40.14 38.74 38.05 37.51 37.11 36.47 36.28 36.26 35.51 35.91 35.83 36.36
23.14 28.67 28.29 24.55 28.75 30.25 31.81 33.94 33.95 30.65 36.21 39.95 39.24 39.03 38.54 38.06 40.54 41.88 42.27 44.37 44.50 45.28 45.10 44.46 43.98 44.16 42.56 42.26 42.35 41.55 41.08 40.41 39.19 38.65 37.98 37.30 37.14 36.17 35.38 34.55 34.57 34.99 35.11 35.20
25.03 27.00 18.87 29.20 35.25 35.35 33.70 35.55 37.86 39.16 39.21 39.56 38.43 39.63 40.05 40.89 42.48 41.76 43.07 44.67 45.72 45.95 45.81 45.27 44.52 44.13 43.52 42.06 41.42 41.20 40.49 39.29 39.06 38.62 38.00 37.04 35.79 35.02 34.06 34.02 34.35 34.14 34.55 34.92
20.27 21.23 26.40 29.44 33.42 32.87 31.91 32.57 38.96 32.64 37.11 40.29 40.94 39.52 38.86 43.06 43.15 43.16 44.96 46.37 46.62 47.07 46.71 45.86 43.21 43.67 42.17 40.51 40.55 40.30 38.97 38.37 38.44 38.52 37.26 36.13 34.61 33.70 33.55 34.02 33.75 34.00 34.89 34.71
23.94 20.18 17.24 28.27 33.97 37.05 36.05 26.69 37.76 36.63 37.38 37.66 38.63 32.23 35.64 42.66 43.75 44.84 45.66 45.86 45.39 43.47 44.34 44.92 43.08 42.37 40.48 39.50 39.37 38.80 38.34 38.44 38.41 38.13 37.07 35.67 34.50 33.68 33.86 33.96 34.90 35.51 35.23 34.48
21.47 18.46 24.50 31.84 35.66 37.77 24.87 26.41 36.13 37.94 38.64 38.46 36.64 38.40 41.40 44.17 44.81 46.27 44.90 45.53 45.19 42.52 43.70 44.38 41.58 41.18 39.29 38.49 38.42 39.51 38.93 37.93 37.21 36.96 36.29 35.75 34.21 33.68 33.94 33.95 34.01 33.49 33.72 33.56
19.86 16.74 16.87 36.00 35.26 29.78 34.19 37.99 38.59 37.74 37.46 38.20 39.94 41.27 42.63 44.34 45.29 45.24 43.99 45.16 43.08 40.11 40.61 40.32 40.98 40.69 37.90 37.57 37.67 37.55 37.60 37.12 36.39 35.42 37.71 36.70 34.10 33.73 33.50 33.01 32.07 31.81 31.38 32.19
25.26 25.88 33.36 36.65 35.91 38.14 38.47 37.36 37.09 37.16 38.87 39.10 38.47 38.90 42.09 42.98 44.22 44.36 44.33 45.06 41.25 36.93 37.08 38.11 39.83 39.75 37.42 34.85 37.18 37.40 37.06 35.96 35.53 35.43 35.95 35.23 33.92 33.61 32.57 32.02 31.62 31.59 31.85 32.05
29.61 31.78 34.00 35.81 37.50 38.16 38.51 37.00 37.70 38.92 38.71 39.57 37.85 39.37 39.03 41.25 44.75 44.82 45.26 45.78 39.56 38.07 36.50 36.54 37.17 38.00 36.57 37.50 38.55 38.15 36.42 35.18 34.79 35.39 34.53 34.72 35.50 34.49 32.85 32.23 31.63 31.93 32.12 32.63
30.64 32.71 34.29 35.35 35.51 35.83 37.41 38.21 38.27 38.99 39.34 38.96 38.19 38.09 40.11 42.61 44.91 45.55 46.08 46.38 39.66 38.51 37.53 36.91 37.10 36.83 38.74 39.26 39.03 37.14 36.42 35.47 35.48 36.71 36.29 34.96 34.76 34.17 33.53 33.68 34.26 32.71 32.90 33.49
27.77 33.99 33.63 34.26 37.33 38.34 36.92 37.06 37.97 37.56 37.33 38.69 39.40 39.48 40.58 41.32 45.56 46.38 46.50 46.73 42.86 39.02 38.55 37.91 38.37 38.39 38.80 39.44 39.26 37.86 36.55 36.32 36.46 35.89 36.17 35.30 34.49 34.30 40.68 41.44 43.10 43.67 42.90 41.00
34.67 37.01 36.36 37.20 37.86 37.77 36.40 37.16 38.30 38.46 38.93 38.06 39.50 40.57 42.28 42.39 44.88 47.28 47.71 46.95 40.22 37.85 38.32 38.25 38.32 38.83 39.79 39.87 39.38 38.22 36.76 36.30 36.91 36.97 35.91 35.12 35.22 34.74 33.76 36.29 40.75 41.52 42.34 42.60
35.35 34.43 32.48 34.39 34.52 37.65 38.38 38.71 39.84 39.10 39.35 39.31 39.50 40.53 41.42 41.78 45.21 46.89 46.43 47.37 43.12 38.62 37.88 37.96 38.10 38.13 39.89 40.18 39.18 38.14 37.42 40.70 37.56 36.72 36.37 35.71 35.34 34.69 34.37 33.63 32.00 32.96 38.72 40.83
34.77 36.18 35.67 37.14 37.40 38.00 39.65 38.50 36.66 36.32 36.96 37.21 38.72 38.95 40.41 40.29 40.89 43.62 47.02 48.47 44.93 38.96 37.95 38.12 38.12 37.94 40.66 40.69 38.90 37.30 38.56 37.57 37.15 37.10 36.63 36.76 35.41 34.70 34.02 33.46 32.91 33.61 35.08 38.41
37.85 37.08 37.24 35.93 35.71 36.18 35.98 35.91 35.30 35.33 35.90 36.16 36.84 37.98 39.70 40.78 41.34 41.73 45.20 44.02 40.27 38.84 38.50 38.47 38.13 39.02 40.13 39.33 37.88 37.17 37.94 39.92 38.43 37.05 37.19 35.69 34.80 34.48 34.02 34.00 34.64 37.60 36.78 35.34
34.42 32.67 33.86 33.73 34.60 34.79 35.14 35.81 35.44 34.88 34.55 34.47 35.57 37.99 39.35 40.19 40.52 40.55 43.46 43.13 42.56 41.22 39.55 39.17 38.12 39.78 39.73 39.16 38.27 38.25 38.81 39.13 39.28 36.16 35.65 35.81 35.84 36.56 37.87 35.30 35.67 34.82 37.18 37.89
35.43 35.23 35.48 34.89 34.32 35.01 35.06 35.48 35.31 34.04 33.09 34.25 35.97 38.03 38.86 38.98 38.46 39.28 40.97 42.62 41.39 40.10 38.88 38.62 39.10 39.29 39.11 38.81 38.21 37.06 35.79 35.84 36.40 36.46 37.59 37.67 36.72 36.29 34.62 33.91 34.07 35.89 36.26 36.91
36.48 35.40 35.53 36.36 36.39 35.70 35.01 34.71 34.09 33.58 33.73 34.64 37.01 37.02 37.38 37.73 38.37 39.41 40.08 38.41 37.05 36.09 36.72 39.31 41.88 39.36 37.66 38.75 37.73 36.61 36.51 37.13 37.87 36.92 36.98 36.74 35.88 34.92 34.55 34.40 35.37 36.03 33.95 34.99
34.59 35.45 37.07 36.85 35.98 34.71 33.45 33.96 33.73 34.20 35.13 35.78 36.21 36.15 36.21 37.37 39.21 38.78 38.27 37.06 37.77 38.01 39.76 39.34 38.16 37.56 38.04 39.65 39.42 37.85 38.18 36.97 35.56 35.10 35.55 34.97 33.90 31.77 32.36 34.71 34.24 35.29 34.58 33.81
34.34 36.59 35.61 33.80 32.77 33.24 33.85 35.28 35.21 34.18 35.11 35.91 35.35 35.34 36.46 38.24 37.84 37.95 36.70 36.09 39.05 40.04 39.09 39.05 37.61 37.48 38.00 39.16 38.71 37.60 36.32 35.40 34.90 34.54 34.46 33.91 34.15 32.63 32.81 33.40 34.67 35.61 34.32 33.93
34.88 35.14 32.56 31.79 31.88 32.83 34.93 35.90 35.64 35.24 35.09 35.19 36.30 37.95 38.25 36.71 38.07 38.19 39.08 38.20 39.78 40.71 38.05 37.08 36.92 39.16 39.73 40.65 37.69 36.52 35.99 35.57 35.42 35.17 35.05 34.91 33.03 32.05 34.05 35.16 35.25 35.43 34.84 33.23
35.40 32.52 32.19 32.77 33.55 34.29 34.89 34.62 33.87 34.63 37.02 37.76 37.86 37.78 37.68 37.57 37.74 36.72 34.88 39.02 38.33 38.57 36.30 36.45 39.41 40.88 41.52 37.26 36.81 36.08 35.63 35.76 35.42 35.57 34.43 34.76 34.40 34.28 34.85 34.99 35.37 35.82 35.67 34.10
32.97 32.56 33.16 34.30 35.23 34.05 31.87 32.54 32.84 33.57 34.15 34.48 35.90 37.34 36.38 34.42 35.22 37.68 38.35 39.13 39.59 37.27 36.27 38.07 39.83 41.77 39.58 36.64 36.56 36.23 36.16 35.74 35.79 33.72 35.28 35.18 32.70 34.59 35.14 34.29 33.49 34.89 34.13 34.40
32.26 33.82 34.96 33.07 32.48 31.86 32.05 32.04 32.69 32.49 32.72 32.55 33.04 34.54 35.50 36.72 35.11 36.31 37.18 37.44 38.71 36.99 36.85 40.46 41.09 41.23 36.86 36.40 36.55 36.21 35.98 35.49 35.78 35.36 33.78 32.90 31.87 32.49 33.22 34.08 33.98 33.77 35.11 35.52
33.60 34.08 33.58 33.88 33.67 33.15 33.15 33.28 31.86 32.73 33.14 32.49 33.23 34.42 34.93 35.69 36.16 35.70 35.92 36.43 36.18 37.20 35.87 36.07 37.26 37.35 36.62 36.88 37.01 36.60 36.09 35.47 34.65 34.01 34.61 31.75 31.08 30.73 30.91 34.09 34.77 35.32 34.86 35.44
34.81 36.02 34.93 34.17 34.62 34.81 34.54 34.22 32.69 32.00 33.04 32.84 32.55 34.18 34.74 34.99 35.39 35.16 35.49 34.34 34.65 34.82 34.84 35.32 35.66 36.56 36.57 37.32 37.02 36.66 36.07 35.82 36.13 34.88 33.57 32.58 32.30 31.04 31.12 33.97 34.68 36.36 35.83 35.02
MSLP
1017.78 1016.85 1016.16 1015.36 1014.52 1014.17 1013.27 1012.71 1012.51 1010.35 1010.15 1008.07 1007.30 1007.38 1006.96 1006.65 1005.89 1004.93 1003.46 1001.84 1000.94 1000.79 1001.08 1001.88 1002.39 1002.84 1003.40 1003.94 1004.71 1005.77 1006.85 1007.84 1008.65 1009.63 1010.51 1011.46 1012.36 1012.99 1013.51 1014.00 1014.28 1014.64 1014.95 1015.11
1017.64 1016.82 1016.03 1014.64 1013.80 1013.06 1012.22 1010.90 1010.52 1010.13 1009.43 1008.65 1008.22 1008.05 1007.86 1006.96 1006.14 1005.08 1004.03 1002.94 1001.15 1000.46 1000.09 1000.34 1000.91 1001.46 1002.27 1003.11 1003.85 1004.83 1005.92 1007.04 1008.10 1009.02 1010.00 1010.85 1011.78 1012.53 1013.07 1013.54 1013.99 1014.31 1014.56 1014.76
1017.67 1016.25 1015.51 1014.17 1011.79 1011.09 1010.59 1009.80 1009.83 1009.19 1009.00 1008.99 1008.79 1008.30 1007.92 1007.10 1005.89 1004.76 1003.99 1003.07 1002.11 1001.28 999.99 999.12 999.27 999.84 1000.67 1001.64 1002.99 1004.19 1005.13 1006.30 1007.34 1008.41 1009.44 1010.35 1011.28 1012.20 1012.87 1013.35 1013.62 1013.94 1014.19 1014.36
1017.52 1016.19 1014.80 1012.42 1011.07 1010.94 1010.09 1009.33 1008.89 1008.71 1009.27 1009.30 1008.34 1007.46 1006.86 1006.13 1005.23 1004.31 1003.93 1002.86 1001.73 1001.09 1000.10 999.19 999.24 998.99 999.96 1001.19 1002.17 1003.32 1004.40 1005.55 1006.73 1007.84 1008.94 1009.99 1010.93 1011.81 1012.50 1012.91 1013.34 1013.58 1013.78 1013.79
1017.80 1016.70 1014.41 1012.13 1011.04 1011.02 1010.12 1009.11 1009.43 1010.44 1009.41 1008.36 1007.65 1006.86 1005.33 1005.01 1004.84 1004.67 1003.22 1002.74 1001.45 1000.19 999.37 998.98 998.56 998.78 999.85 1000.40 1001.48 1002.61 1003.65 1004.76 1005.83 1006.88 1008.26 1009.50 1010.64 1011.38 1012.03 1012.60 1012.90 1013.22 1013.13 1013.27
1018.02 1016.97 1014.71 1011.46 1010.97 1010.71 1009.89 1009.33 1009.57 1009.04 1008.55 1007.78 1006.96 1006.08 1004.57 1003.97 1003.62 1003.30 1002.32 1001.89 1000.69 999.13 997.85 997.49 997.33 997.96 999.26 1000.02 1000.91 1001.86 1002.73 1003.78 1005.01 1006.18 1007.49 1008.89 1009.93 1010.89 1011.59 1011.97 1012.30 1012.54 1012.67 1012.78
1017.64 1016.54 1014.31 1011.20 1010.78 1010.36 1010.29 1010.48 1008.64 1008.72 1008.20 1007.56 1006.89 1006.26 1004.44 1003.61 1002.84 1002.60 1002.02 1000.55 999.57 998.01 996.52 996.24 996.79 997.31 998.66 999.25 1000.02 1000.94 1002.19 1003.43 1004.63 1005.81 1007.05 1008.29 1009.54 1010.54 1011.10 1011.54 1011.95 1012.28 1012.39 1012.20
1016.97 1015.77 1013.19 1011.16 1010.73 1010.83 1010.10 1009.46 1008.76 1008.24 1007.72 1007.34 1006.63 1005.54 1004.49 1003.64 1002.82 1002.19 1000.67 999.22 998.01 996.97 995.90 995.96 996.34 996.56 997.95 998.97 999.86 1000.90 1002.23 1003.37 1004.56 1005.66 1006.95 1008.19 1009.28 1010.12 1010.65 1011.13 1011.68 1011.91 1011.96 1011.98
1016.17 1013.97 1012.04 1010.43 1010.78 1010.00 1009.89 1009.12 1008.54 1007.91 1007.23 1006.69 1005.59 1004.83 1003.79 1003.01 1002.61 1001.56 1000.58 999.17 998.71 997.07 997.02 996.59 996.25 996.48 997.82 998.94 999.75 1001.08 1002.39 1003.48 1004.57 1005.83 1006.93 1007.99 1009.01 1009.74 1010.38 1010.86 1011.30 1011.45 1011.69 1011.86
1015.37 1011.85 1011.70 1010.33 1010.12 1009.68 1009.27 1008.76 1008.03 1007.45 1006.62 1006.03 1005.28 1004.22 1003.09 1002.22 1001.69 1000.91 999.96 999.06 998.57 998.25 997.99 997.19 996.95 997.50 998.18 998.94 999.85 1001.16 1002.58 1003.74 1004.91 1006.06 1007.20 1008.03 1008.71 1009.22 1009.77 1010.33 1010.71 1011.06 1011.34 1011.44
1012.89 1011.91 1010.77 1009.83 1009.59 1009.16 1008.42 1008.01 1007.27 1006.51 1005.91 1005.31 1004.45 1003.40 1002.52 1001.65 1001.18 1000.75 999.94 999.82 999.57 999.54 998.62 998.21 998.06 998.73 998.84 999.41 1000.28 1001.56 1002.89 1004.14 1005.26 1006.15 1007.06 1007.77 1008.33 1008.77 1009.21 1009.49 1009.76 1010.19 1010.47 1010.56
1011.84 1011.07 1010.78 1009.11 1008.72 1008.38 1007.76 1006.95 1006.30 1005.93 1005.07 1004.28 1003.73 1002.92 1001.88 1001.02 1000.47 999.97 1000.02 999.92 999.48 999.22 999.20 998.97 999.38 999.62 999.56 999.86 1000.73 1002.14 1003.35 1004.34 1005.22 1006.06 1006.75 1007.45 1008.15 1008.61 1008.74 1008.95 1009.18 1009.38 1009.63 1009.56
1011.11 1010.80 1010.25 1009.19 1008.37 1007.93 1007.48 1006.74 1005.97 1005.51 1004.86 1004.11 1003.06 1002.35 1001.70 1000.66 999.84 999.67 999.85 999.86 999.99 999.92 999.80 1000.09 1000.26 1000.61 1000.37 1000.63 1001.46 1002.51 1003.33 1004.28 1005.12 1005.88 1006.64 1007.35 1008.00 1008.43 1008.74 1008.94 1009.03 1009.13 1009.10 1008.99
1010.90 1010.54 1009.53 1008.58 1007.83 1007.21 1006.90 1006.23 1005.57 1004.91 1004.28 1003.67 1002.90 1001.97 1001.53 1000.83 999.68 999.36 999.32 999.46 999.63 999.90 999.84 999.83 1000.12 1000.89 1001.35 1001.59 1002.42 1002.99 1003.68 1004.26 1005.07 1005.91 1006.50 1007.08 1007.73 1008.15 1008.53 1008.98 1009.21 1009.32 1008.91 1008.74
1010.54 1009.79 1009.35 1008.31 1007.64 1007.02 1006.54 1005.97 1005.08 1004.29 1003.58 1002.95 1002.28 1001.76 1001.55 1000.75 999.66 999.18 998.82 998.90 999.39 999.58 999.84 1000.11 1000.14 1001.15 1001.31 1002.37 1002.97 1003.35 1004.04 1004.86 1005.25 1005.91 1006.42 1006.95 1007.58 1008.04 1008.53 1008.79 1008.97 1009.02 1008.87 1008.58
1009.89 1009.47 1008.71 1008.08 1007.41 1006.86 1006.46 1005.77 1005.11 1004.01 1003.33 1002.72 1002.12 1001.38 1000.93 1000.54 999.98 999.22 998.96 998.92 999.38 999.23 999.57 1000.01 1000.13 1001.02 1001.75 1002.48 1003.04 1003.66 1004.27 1004.85 1005.42 1006.15 1006.59 1007.06 1007.49 1007.98 1008.33 1008.48 1008.48 1008.35 1008.36 1008.28
1010.21 1008.78 1008.27 1007.73 1007.27 1006.45 1006.01 1005.36 1004.76 1003.88 1003.05 1002.50 1001.64 1001.05 1000.55 1000.01 999.64 999.16 998.44 998.64 998.37 999.21 999.70 1000.21 1000.71 1001.32 1001.93 1002.53 1003.28 1003.95 1004.58 1005.17 1005.66 1006.38 1006.64 1006.94 1007.33 1007.71 1007.90 1008.10 1008.09 1008.16 1008.06 1007.82
1009.89 1009.18 1008.54 1007.76 1006.83 1005.99 1005.00 1004.51 1003.94 1003.25 1002.41 1001.72 1000.90 1000.26 1000.04 999.67 999.31 998.62 998.30 998.45 998.54 999.08 999.66 1000.05 1000.43 1001.17 1002.29 1003.13 1003.62 1004.20 1004.84 1005.47 1005.93 1006.29 1006.68 1006.87 1007.08 1007.47 1007.82 1007.95 1007.85 1007.78 1007.77 1007.54
1009.23 1008.54 1007.75 1007.03 1006.37 1005.54 1004.58 1003.63 1003.08 1002.38 1001.60 1000.89 1000.35 999.63 999.45 998.81 998.21 998.16 997.85 998.12 998.41 999.19 1000.03 1000.11 1000.65 1001.53 1002.88 1003.38 1003.90 1004.49 1005.10 1005.63 1006.03 1006.43 1006.67 1006.89 1007.21 1007.52 1007.69 1007.69 1007.70 1007.63 1007.64 1007.53
1008.62 1007.87 1006.91 1006.39 1005.59 1004.85 1003.77 1002.92 1002.25 1001.72 1000.93 1000.08 999.70 998.83 998.46 998.05 997.56 997.09 997.28 998.08 998.49 999.18 1000.11 1000.63 1001.03 1002.29 1002.95 1003.57 1004.16 1004.85 1005.42 1005.86 1006.25 1006.56 1006.87 1007.11 1007.34 1007.62 1007.72 1007.63 1007.59 1007.55 1007.54 1007.39
1008.03 1006.97 1006.46 1005.83 1004.87 1004.05 1003.13 1002.22 1001.61 1000.81 1000.03 999.49 998.85 998.37 997.76 997.33 996.83 996.74 997.73 998.57 999.56 999.87 1000.20 1000.99 1001.84 1002.65 1003.57 1004.10 1004.72 1005.21 1005.50 1005.88 1006.37 1006.63 1006.94 1007.31 1007.60 1007.62 1007.50 1007.48 1007.46 1007.51 1007.50 1007.34
1007.40 1006.86 1006.17 1005.41 1004.43 1003.30 1002.49 1001.64 1000.87 1000.15 999.08 998.39 998.02 997.13 996.66 996.73 996.82 997.72 998.34 998.60 999.76 1000.37 1001.11 1001.77 1002.33 1003.22 1004.15 1004.49 1004.98 1005.39 1005.56 1005.96 1006.35 1006.59 1007.09 1007.39 1007.53 1007.48 1007.34 1007.24 1007.19 1007.22 1007.43 1007.31
1007.06 1006.67 1005.99 1005.01 1004.12 1003.18 1002.26 1001.39 1000.50 999.59 997.79 996.98 996.61 996.53 997.04 997.51 997.96 998.42 999.44 999.99 1000.47 1001.01 1001.75 1002.49 1003.22 1003.91 1004.21 1004.83 1005.12 1005.40 1005.75 1006.19 1006.49 1006.78 1007.10 1007.24 1007.34 1007.27 1007.17 1007.09 1007.09 1007.11 1007.15 1007.03
1006.96 1006.41 1005.67 1004.97 1004.24 1003.46 1002.64 1001.82 1000.94 1000.09 999.19 998.51 998.22 998.25 998.21 998.56 999.43 999.95 1000.46 1001.19 1001.72 1002.31 1002.71 1003.18 1003.65 1003.81 1004.53 1004.93 1005.18 1005.40 1005.80 1006.11 1006.38 1006.74 1006.94 1006.97 1007.09 1007.09 1007.05 1007.13 1007.25 1007.18 1007.09 1006.69
1006.83 1006.25 1005.77 1005.29 1004.68 1004.04 1003.38 1002.64 1001.76 1000.98 1000.26 999.89 999.80 999.91 999.96 1000.17 1000.54 1001.41 1002.02 1002.38 1002.82 1003.23 1003.41 1003.57 1003.86 1004.20 1004.77 1005.07 1005.29 1005.44 1005.94 1006.23 1006.37 1006.55 1006.74 1006.84 1006.93 1007.03 1007.05 1007.10 1007.16 1007.06 1006.75 1006.44
1006.59 1006.26 1006.05 1005.70 1005.27 1004.76 1004.26 1003.64 1003.08 1002.60 1002.11 1001.91 1001.84 1001.89 1002.02 1002.24 1002.45 1002.68 1003.23 1003.71 1004.03 1004.10 1004.29 1004.52 1004.62 1004.77 1005.05 1005.23 1005.44 1005.72 1006.09 1006.14 1006.38 1006.58 1006.72 1006.81 1006.82 1006.89 1007.15 1007.04 1006.88 1006.71 1006.58 1006.35
1006.84 1006.55 1006.29 1005.98 1005.65 1005.37 1005.06 1004.64 1004.23 1004.03 1003.80 1003.60 1003.51 1003.58 1003.62 1003.66 1003.80 1004.05 1004.31 1004.47 1004.56 1004.80 1004.86 1004.91 1005.07 1005.28 1005.53 1005.48 1005.64 1005.94 1006.09 1006.08 1006.28 1006.58 1006.76 1006.84 1006.87 1006.90 1007.01 1006.97 1006.83 1006.46 1006.35 1006.28
Wind_Speed
20 23 24 26 26 21 25 20 17 27 25 27 22 18 10 15 19 25 28 20 9 11 13 12 12 12 12 13 14 15 16 15 15 13 12 10 9 8 7 7 6 5 5 5
24 24 24 27 26 27 24 30 25 27 28 22 24 11 14 15 17 20 21 22 22 14 11 14 17 16 14 14 16 16 16 15 13 12 12 11 9 8 7 6 6 5 5 5
20 25 20 16 26 24 23 27 20 18 6 9 13 20 16 16 18 13 17 21 22 24 15 15 18 19 19 17 15 16 15 14 14 13 13 11 9 7 7 7 5 6 5 5
10 16 15 9 15 14 16 18 13 5 5 10 15 16 17 16 10 16 18 20 23 19 19 11 10 15 14 15 17 16 15 14 14 13 12 10 8 8 6 5 7 5 6 6
5 10 18 18 6 10 14 12 13 14 20 15 13 12 14 9 13 15 16 18 21 21 20 16 12 15 14 16 16 16 15 15 14 14 13 11 9 8 5 6 5 5 5 5
10 11 11 14 12 9 8 9 10 15 17 21 11 11 14 17 17 22 16 18 21 25 22 18 13 15 16 16 16 16 16 15 14 14 13 12 9 8 5 4 6 4 5 6
8 6 11 13 4 1 5 9 14 18 17 19 15 12 19 21 18 19 17 21 25 21 18 16 13 16 15 16 18 14 14 13 13 12 12 10 8 6 6 6 4 4 5 5
4 4 12 0 10 8 9 12 18 16 17 15 15 18 18 18 15 18 20 21 25 16 9 8 14 16 15 15 11 14 14 13 13 11 9 7 9 6 5 5 5 5 3 5
8 11 12 22 19 20 17 14 16 18 15 17 20 20 20 19 12 13 17 17 16 8 3 5 10 13 15 11 15 14 14 13 11 10 7 7 7 6 4 5 4 4 3 4
10 17 18 18 19 20 17 15 13 16 19 18 19 17 24 20 11 11 15 16 12 8 5 4 7 8 12 14 14 15 14 12 9 9 7 6 4 4 4 4 3 3 4 4
16 20 21 17 11 10 18 16 19 18 18 18 18 18 19 15 11 8 10 13 8 7 6 4 8 10 12 14 15 13 11 9 8 7 7 6 4 5 4 4 5 4 4 4
15 17 16 21 19 18 19 20 19 18 19 18 16 17 18 17 10 4 6 10 11 10 4 6 6 9 11 12 13 12 10 7 7 6 4 4 4 3 5 6 6 8 11 7
17 15 17 21 20 13 13 15 18 17 17 17 17 14 15 14 10 5 5 8 5 6 5 6 5 6 8 10 11 10 8 7 6 6 5 5 3 3 3 2 1 4 6 5
8 9 10 8 13 14 14 15 14 12 14 11 11 11 11 13 14 6 3 8 4 6 5 5 9 8 9 8 7 7 7 13 6 5 5 4 4 3 3 3 2 3 5 6
8 8 11 15 15 14 13 14 17 17 16 15 13 12 10 12 13 13 5 6 2 4 6 6 9 7 13 9 8 8 7 5 5 4 4 4 4 3 3 2 3 3 2 4
15 15 17 14 15 15 15 16 17 19 18 16 16 15 12 11 12 12 9 6 6 9 4 5 7 8 10 10 8 7 6 13 8 4 4 4 3 3 3 3 4 3 2 3
16 19 20 19 16 15 17 17 15 17 18 17 18 16 12 10 10 12 4 7 10 8 8 12 11 10 9 9 9 6 5 5 10 4 3 3 3 3 2 1 3 3 3 3
9 14 17 16 16 17 21 19 17 17 17 18 18 14 12 11 11 11 10 7 7 6 9 10 13 13 10 9 8 6 5 4 4 3 3 3 3 2 2 3 3 2 2 3
17 18 21 18 16 20 21 19 16 17 16 17 15 16 15 15 13 12 6 10 11 11 7 12 21 16 9 10 9 6 5 5 4 3 3 4 3 1 1 1 2 1 2 4
18 19 16 19 21 19 20 17 18 15 19 19 15 16 15 14 13 9 10 10 9 10 12 13 14 10 8 10 12 5 5 5 4 4 3 3 3 0 2 3 3 3 2 3
21 15 17 20 19 19 17 16 15 18 17 17 14 15 14 11 8 12 14 10 9 12 12 17 10 8 5 8 7 5 5 5 4 3 3 2 0 1 2 2 2 2 3 3
18 14 18 17 18 19 16 16 16 15 16 15 16 16 9 7 11 9 9 12 8 17 10 7 7 11 8 13 5 5 4 4 3 3 3 2 1 1 1 1 2 3 3 5
11 14 16 18 16 15 14 13 12 13 11 9 2 8 9 7 7 10 9 9 8 12 8 7 12 16 15 6 5 5 5 4 3 3 3 2 1 1 1 2 3 3 3 4
12 13 14 15 11 9 11 12 11 10 9 12 12 10 10 10 10 8 10 13 18 12 7 8 12 15 13 5 5 5 4 3 4 3 3 2 1 1 2 2 3 4 4 5
11 10 8 9 9 8 10 10 9 10 12 13 13 13 13 10 9 8 7 8 14 7 4 12 12 15 5 4 4 4 3 3 3 2 1 1 1 2 2 4 4 5 5 5
9 5 5 6 6 6 6 7 8 8 9 10 10 10 10 9 9 9 8 9 5 8 5 4 4 4 4 3 3 4 3 2 1 1 0 0 0 1 3 3 4 4 4 5
5 6 4 5 6 6 7 9 9 9 9 8 9 8 8 8 8 8 9 5 5 5 5 4 4 4 3 2 3 3 2 2 1 1 1 1 1 2 3 4 4 5 3 4
Wind_Direction
277 281 284 284 277 278 277 258 246 270 265 268 276 290 321 311 325 327 323 303 238 210 204 205 198 189 187 180 174 171 174 179 183 178 177 172 172 177 185 187 202 205 226 245
277 276 273 276 278 273 261 270 267 253 265 263 275 312 319 327 315 312 321 318 298 257 211 196 195 192 183 180 178 171 175 181 174 170 171 175 176 179 181 190 194 202 212 227
274 276 282 275 255 263 260 265 268 268 280 12 328 314 315 310 295 313 312 319 319 314 244 213 198 187 186 180 167 175 176 173 171 171 173 176 174 169 181 186 179 196 221 233
270 285 253 289 305 281 269 273 303 303 339 291 282 281 298 284 286 315 315 316 310 304 299 245 221 188 171 168 170 173 173 169 170 168 172 168 160 174 172 166 187 197 229 240
276 283 279 279 343 345 323 304 85 350 309 295 287 295 308 312 310 303 305 306 301 294 283 276 203 182 174 164 166 168 170 169 168 164 163 160 166 170 169 173 184 211 224 254
290 282 277 278 318 15 335 286 333 304 305 308 309 309 307 317 306 306 312 306 311 299 282 266 202 170 166 166 166 173 170 168 161 158 158 164 165 165 167 171 198 209 251 237
265 275 277 270 237 294 335 282 299 304 302 301 287 271 292 300 299 300 309 313 316 298 271 239 174 164 168 164 174 168 154 149 148 152 153 158 152 153 170 184 194 230 252 275
286 236 275 95 336 298 314 305 298 303 298 286 282 287 286 285 291 298 314 326 326 306 258 178 171 158 157 165 146 140 142 141 143 140 148 147 155 167 166 168 198 234 262 285
198 250 275 287 292 296 291 277 296 301 293 301 302 295 288 294 279 302 317 330 323 329 276 167 161 151 148 143 135 136 137 137 134 135 139 148 153 166 164 176 190 239 228 257
290 267 263 282 300 295 294 286 284 286 289 292 289 293 295 295 280 312 334 337 337 341 333 83 94 121 130 133 131 133 130 125 126 138 141 148 152 159 171 181 188 214 235 249
261 279 284 278 274 284 294 286 290 291 288 287 292 290 287 293 274 296 336 326 331 328 8 41 84 113 121 123 125 118 120 126 137 146 155 155 170 174 188 199 179 199 223 218
269 280 285 290 298 299 297 299 300 296 297 298 295 291 297 294 267 263 317 321 337 325 22 16 92 120 118 114 118 126 128 136 147 143 144 147 164 166 212 221 227 217 230 246
270 279 288 291 293 288 288 293 296 297 295 296 300 304 308 298 287 236 283 314 283 246 185 156 98 110 116 116 118 132 132 136 136 140 152 156 157 176 208 336 285 261 274 288
282 296 294 273 291 299 297 290 293 294 294 293 293 307 310 310 300 250 287 293 253 224 187 163 133 133 125 104 118 138 144 152 145 156 157 148 157 178 174 198 215 292 300 299
279 273 261 283 289 294 310 311 306 304 304 307 305 298 303 304 311 303 261 250 264 223 159 157 132 129 133 145 175 141 129 135 134 133 142 146 143 149 184 214 238 240 252 277
318 312 314 310 308 308 313 308 300 300 302 302 297 294 293 288 293 299 273 153 185 194 160 133 119 145 138 145 122 114 120 138 134 133 134 133 139 168 201 216 230 252 274 261
314 317 319 307 302 301 307 302 292 292 296 293 289 286 287 284 293 300 237 200 188 199 162 178 167 134 121 127 127 121 119 131 140 132 142 149 153 172 181 248 261 249 250 276
282 292 302 287 290 298 303 299 292 289 286 286 287 280 279 281 281 291 275 209 169 171 184 148 128 115 109 123 127 123 122 124 131 138 146 134 123 135 206 229 250 264 290 297
308 306 306 295 296 297 297 294 287 285 284 283 281 280 279 274 275 272 199 158 141 130 133 126 119 107 128 137 127 122 125 133 129 126 123 126 111 109 296 321 285 277 312 286
301 299 294 300 300 297 295 290 290 284 291 285 274 279 276 269 265 239 152 152 146 131 132 125 110 122 124 139 129 117 125 127 127 121 132 116 90 359 284 288 305 301 301 298
301 299 306 308 303 298 295 297 297 291 289 283 275 266 262 261 227 135 134 122 124 118 111 110 121 117 117 132 129 126 126 118 124 131 117 124 255 262 290 306 313 314 322 296
309 312 311 313 308 308 309 300 299 291 281 270 264 264 246 145 113 99 110 125 119 118 114 111 108 125 144 136 130 131 125 130 143 124 136 158 177 260 308 306 300 320 297 282
309 314 313 318 314 313 314 317 320 316 300 274 317 94 101 93 105 114 108 98 92 102 97 107 144 158 151 138 135 130 129 133 132 139 145 163 225 305 303 323 326 296 277 274
309 307 319 323 322 324 336 343 342 353 26 48 52 67 84 88 72 79 95 111 121 113 116 140 157 155 139 133 135 132 133 134 143 155 187 189 200 310 337 340 324 325 295 300
304 311 318 331 337 346 349 349 10 16 34 43 48 53 62 61 77 88 92 100 113 104 100 148 162 136 117 127 130 116 133 139 152 167 185 165 48 346 340 306 289 301 309 313
320 329 330 337 343 353 359 6 28 29 37 46 46 48 53 59 70 71 78 89 85 89 71 73 80 92 98 112 120 128 146 123 69 21 160 5 31 340 305 301 310 285 303 314
352 6 358 15 13 19 28 34 38 36 33 37 48 41 51 52 63 73 76 71 72 70 60 54 58 93 114 138 127 131 133 118 82 39 29 357 336 304 305 312 302 310 309 316